Location: Bittkow
(50.3000°N, 19.0000°E)
Time: 01:28:10
(UTC+00:00)

Cosmos 1980 Rocket - Pass Details

Date: 19 September 2020
Orbit: 831 x 848 km, 71.0° (Epoch: 30 October)

Event Time Altitude Azimuth Distance (km) Brightness Sun altitude
Exits shadow 02:35:40 23° 208° (SSW) 1,742 3.4 -17.8°
Maximum altitude 02:39:23 90° 265° (W) 851 2.2 -17.3°
Drops below altitude 10° 02:45:05 10° 29° (NNE) 2,470 5.4 -16.5°
Sets 02:47:31 0° 30° (NNE) 3,406 6.2 -16.1°
